Cosmos 1758 Rocket - Orbit

View from above orbital plane
View from above orbital plane
View from above satellite
View from above satellite

Ground track
Ground track

The orbit data is extracted from the following two-line orbital elements,

1 16792U 86046B   13145.19976166  .00000366  00000-0  42682-4 0  1609
2 16792 082.4818 157.9793 0026138 134.7890 298.8942 14.82220152454979
Epoch (UTC): 25 May 2013 04:47:39
Eccentricity: 0.0026138
inclination: 82.4818°
perigee height: 604 km
apogee height: 640 km
right ascension of ascending node: 157.9793°
argument of perigee: 134.7890°
revolutions per day: 14.82220152
mean anomaly at epoch: 298.8942°
orbit number at epoch: 45497

The dashed part of the orbit path shows where the satellite is in the earth's shadow,  

Developed and maintained by Chris Peat, Heavens-Above GmbH. Please read the updated FAQ before sending e-mail. Imprint. DLR